Printer-friendly version

IAU Minor Planet Center

Minor Planet Center

MPEC 2007-V94 : 2007 VK184

The following Minor Planet Electronic Circular may be linked-to from your own Web pages, but must not otherwise be redistributed electronically.


Read MPEC 2007-V93 Read MPEC 2007-V95


M.P.E.C. 2007-V94                                Issued 2007 Nov. 13, 14:28 UT

     The Minor Planet Electronic Circulars contain information on unusual
         minor planets and routine data on comets.  They are published
   on behalf of Commission 20 of the International Astronomical Union by the
          Minor Planet Center, Smithsonian Astrophysical Observatory,
                          Cambridge, MA 02138, U.S.A.

             Prepared using the Tamkin Foundation Computer Network

                              MPC@CFA.HARVARD.EDU
          URL http://www.cfa.harvard.edu/iau/mpc.html  ISSN 1523-6714

                                  2007 VK184

Observations:
     K07VI4K* C2007 11 12.13904 23 55 58.11 +07 20 55.4          18.1 V EV094703
     K07VI4K  C2007 11 12.14678 23 56 06.82 +07 21 31.3          18.3 V EV094703
     K07VI4K  C2007 11 12.15454 23 56 15.54 +07 22 07.0          18.3 V EV094703
     K07VI4K  C2007 11 12.16231 23 56 24.28 +07 22 42.8          18.1 V EV094703
     K07VI4K  C2007 11 12.22905 23 57 38.95 +07 27 46.1          18.1 V EV094703
     K07VI4K  C2007 11 12.23071 23 57 40.75 +07 27 53.4          18.2 V EV094703
     K07VI4K  C2007 11 12.23234 23 57 42.66 +07 28 00.8          18.0 V EV094703
     K07VI4K  C2007 11 12.23396 23 57 44.42 +07 28 07.7          18.0 V EV094703
     K07VI4K  C2007 11 12.30001 23 58 57.97 +07 33 01.8          18.5 V EV094703
     K07VI4K  C2007 11 12.30182 23 58 59.95 +07 33 10.1          18.1 V EV094703
     K07VI4K  C2007 11 12.30362 23 59 01.96 +07 33 18.1          18.1 V EV094703
     K07VI4K  C2007 11 12.30543 23 59 03.94 +07 33 26.1          18.1 V EV094703
     K07VI4K  C2007 11 12.71782 00 06 45.20 +08 02 35.1          18.6 R EV094B04
     K07VI4K  C2007 11 12.72386 00 06 51.48 +08 02 58.7          18.2 R EV094B04
     K07VI4K  C2007 11 12.72714 00 06 54.87 +08 03 12.4          17.9 R EV094B04
     K07VI4K  C2007 11 12.72960 00 06 57.45 +08 03 22.7          18.3 R EV094B04
     K07VI4K  C2007 11 12.75945 00 07 28.71 +08 05 17.4                 EV094J95
     K07VI4K  C2007 11 12.76194 00 07 31.27 +08 05 27.5                 EV094J95
     K07VI4K  C2007 11 12.76444 00 07 33.86 +08 05 38.3          18.4 R EV094J95
     K07VI4K  C2007 11 12.91909 00 10 10.57 +08 16 05.5          18.1 R EV094473
     K07VI4K  C2007 11 12.92050 00 10 11.97 +08 16 11.1          18.2 R EV094473
     K07VI4K  C2007 11 12.92250 00 10 13.98 +08 16 18.7          18.3 R EV094473
     K07VI4K  C2007 11 13.15885 00 14 16.54 +08 31 50.6          18.2 V EV094703
     K07VI4K  C2007 11 13.15939 00 14 17.08 +08 31 52.6          17.9 V EV094703
     K07VI4K  C2007 11 13.15991 00 14 17.59 +08 31 54.7          18.3 V EV094703
     K07VI4K  C2007 11 13.16044 00 14 18.09 +08 31 56.8          18.3 V EV094703
     K07VI4K tC2007 11 13.22034 00 15 15.52 +08 35 40.8          18.9 V EV094291
     K07VI4K tC2007 11 13.22457 00 15 19.57 +08 35 55.3          18.8 V EV094291
     K07VI4K tC2007 11 13.22853 00 15 23.34 +08 36 10.8          18.8 V EV094291
     K07VI4K 9C2007 11 13.26169 00 15 55.40 +08 38 09.5          18.2 R EV094673
     K07VI4K 9C2007 11 13.26759 00 16 01.07 +08 38 31.0                 EV094673
     K07VI4K 9C2007 11 13.27535 00 16 08.46 +08 38 59.5                 EV094673
     K07VI4K  C2007 11 13.52052 00 20 07.18 +08 55 19.3          18.7 R EV094D21
     K07VI4K  C2007 11 13.52345 00 20 09.84 +08 55 30.5          18.6 R EV094D21
     K07VI4K  C2007 11 13.52639 00 20 12.54 +08 55 40.4          18.5 R EV094D21

Observer details:
291 LPL/Spacewatch II.  Observer J. V. Scotti.  1.8-m f/2.7 reflector + CCD.
473 Remanzacco.  Observers L. Donato, M. Gonano, V. Gonano, E. Guido,
    V. Santini, G. Sostero.  0.45-m f/4.4 Newtonian reflector + CCD.
673 Table Mountain Observatory, Wrightwood.  Observer H. Rhoades.  0.61-m f/16
    Cassegrain + CCD.
703 Catalina Sky Survey.  Observer A. R. Gibbs.  Measurers E. C. Beshore,
    A. Boattini, G. J. Garradd, A. R. Gibbs, A. D. Grauer, R. E. Hill,
    R. A. Kowalski, S. M. Larson, R. H. McNaught.  0.68-m Schmidt + CCD.
B04 Saint-Barthelemy Observatory.  Observer A. Carbognani.  0.81-m f/7.9
    reflector + CCD.
D21 Shenton Park.  Observers P. Luckas, P. R. Holvorcem, M. Schwartz.
    Measurer P. R. Holvorcem.  0.35-m f/9.4 Schmidt-Cassegrain + CCD.
J95 Great Shefford.  Observer P. Birtwhistle.  0.40-m f/6.0 Schmidt-Cassegrain
    + CCD.

Orbital elements:
2007 VK184                                          PHA, Earth MOID = 0.0007 AU
Epoch 2007 Oct. 27.0 TT = JDT 2454400.5                 MPC
M  15.93112              (2000.0)            P               Q
n   0.43717768     Peri.   72.88531     +0.83882575     +0.54401678
a   1.7193491      Node   254.15283     -0.50720110     +0.76732912
e   0.5680896      Incl.    1.21649     -0.19778373     +0.33948751
P   2.25           H   21.9           G   0.15           U   7
Residuals in seconds of arc
071112 703  0.4+  0.2+    071112 B04  0.4+  1.3+    071113 703  0.2-  0.4+
071112 703  0.2+  0.3+    071112 B04  0.0   0.2-    071113 703  0.4-  0.5+
071112 703  0.1-  0.3+    071112 B04  0.4-  0.1-    071113 291  0.0   0.3+
071112 703  0.0   0.3+    071112 B04  0.1-  0.0     071113 291  0.2+  0.8-
071112 703  0.1-  0.2+    071112 J95  0.2+  0.3-    071113 291  0.2+  0.1+
071112 703  0.8-  0.0     071112 J95  0.1-  0.4-    071113 673  0.9-  0.2+
071112 703  0.6+  0.1+    071112 J95  0.2-  0.1+    071113 673  0.1+  0.2+
071112 703  0.1-  0.3-    071112 473  0.9+  0.2+    071113 673  0.4+  0.4+
071112 703  0.4+  0.4-    071112 473  0.5+  0.3+    071113 D21  0.2-  0.3-
071112 703  0.1-  0.1-    071112 473  0.4+  0.1+    071113 D21  0.2-  0.6+
071112 703  0.0   0.0     071113 703  0.7-  0.2+    071113 D21  0.2+  0.2+
071112 703  0.5-  0.0     071113 703  0.4-  0.2+

Ephemeris:
2007 VK184               a,e,i = 1.72, 0.57, 1                   q = 0.7426
Date    TT    R. A. (2000) Decl.     Delta      r     Elong.  Phase     V
2007 11 06    20 55.89   -05 36.0    0.0614   0.995    91.7    84.8    18.8
2007 11 16    00 52.67   +10 49.1    0.116    1.083   142.9    33.4    18.8
2007 11 26    01 56.63   +13 56.6    0.212    1.174   148.7    25.9    20.1
2007 12 06    02 24.18   +15 06.7    0.323    1.264   145.3    26.3    21.1
2007 12 16    02 42.15   +15 56.2    0.444    1.353   139.5    28.2    22.0

Timothy B. Spahr             (C) Copyright 2007 MPC           M.P.E.C. 2007-V94

Read MPEC 2007-V93 Read MPEC 2007-V95


Our Web policy. Index to the CBAT/MPC/ICQ pages.


Valid HTML 4.01!